This is the latest recevied weather packets stored in our database for station/object AD8BW. If no packets are shown the sender has not sent any weather packets the latest 10 day(s).
| Time | Temp. | Humidity | Pressure | Rain* | Wind** | Luminosity | Snow |
|---|---|---|---|---|---|---|---|
| 1777839749 | 16.11° C | 42% | 1007.7 hPa | 0 mm | - | 111 W/m² | - |
| 1777839148 | 16.11° C | 42% | 1007.8 hPa | 0 mm | - | 102 W/m² | - |
| 1777838548 | 16.11° C | 41% | 1008 hPa | 0 mm | - | 123 W/m² | - |
| 1777837948 | 16.11° C | 40% | 1008 hPa | 0 mm | - | 172 W/m² | - |
| 1777837346 | 16.67° C | 39% | 1008.2 hPa | 0 mm | - | 125 W/m² | - |
| 1777836750 | 16.67° C | 43% | 1008.3 hPa | 0 mm | - | 345 W/m² | - |
| 1777836152 | 16.67° C | 42% | 1008.3 hPa | 0 mm | - | 132 W/m² | - |
| 1777835544 | 15.56° C | 44% | 1008.6 hPa | 0 mm | - | 155 W/m² | - |
| 1777834946 | 15.56° C | 45% | 1008.6 hPa | 0 mm | - | 141 W/m² | - |
| 1777834346 | 16.11° C | 44% | 1008.9 hPa | 0 mm | - | 167 W/m² | - |
| 1777833747 | 16.67° C | 45% | 1009 hPa | 0 mm | - | 912 W/m² | - |
| 1777833148 | 15.56° C | 45% | 1009.1 hPa | 0 mm | - | 323 W/m² | - |
| 1777832550 | 14.44° C | 45% | 1009.3 hPa | 0 mm | - | 148 W/m² | - |
| 1777831946 | 15° C | 44% | 1009.4 hPa | 0 mm | - | 125 W/m² | - |
| 1777831349 | 15° C | 43% | 1009.5 hPa | 0 mm | - | 174 W/m² | - |
| 1777830742 | 15.56° C | 43% | 1009.5 hPa | 0 mm | - | 390 W/m² | - |
| 1777830138 | 15.56° C | 43% | 1009.6 hPa | 0 mm | - | 396 W/m² | - |
| 1777829538 | 15.56° C | 44% | 1009.7 hPa | 0 mm | - | 271 W/m² | - |
| 1777828942 | 15° C | 43% | 1009.9 hPa | 0 mm | - | 330 W/m² | - |
| 1777828339 | 15° C | 43% | 1010.1 hPa | 0 mm | - | 257 W/m² | - |
| 1777827738 | 14.44° C | 44% | 1010.2 hPa | 0 mm | - | 269 W/m² | - |
| 1777827141 | 13.89° C | 44% | 1010.4 hPa | 0 mm | - | 371 W/m² | - |
| 1777826540 | 13.89° C | 44% | 1010.6 hPa | 0 mm | - | 241 W/m² | - |
| 1777825938 | 13.33° C | 46% | 1010.5 hPa | 0 mm | - | 186 W/m² | - |
| 1777825339 | 13.33° C | 47% | 1010.7 hPa | 0 mm | - | 181 W/m² | - |
* Rain latest hour (hover to see other rain measurements)
** Current wind speed in m/s (hover to see current wind gust speed)